Weather History for KIPT - February, 2011

Change the Weather History Date:

Sunday, February 13, 2011

  Actual Average Record
Temperature  
Mean Temperature 30 °F 29 °F  
Max Temperature 46 °F 37 °F 54 °F (1937)
Min Temperature 13 °F 21 °F -6 °F (1917)
Degree Days  
Heating Degree Days 35 36  
Month to date heating degree days 525 477  
Since 1 July heating degree days 4073 3956  
Cooling Degree Days 0 0  
Month to date cooling degree days 0 0  
Year to date cooling degree days 0 0  
Moisture  
Dew Point 18 °F    
Average Humidity 61    
Maximum Humidity 80    
Minimum Humidity 41    
Precipitation  
Precipitation T in 0.08 in 2.72 in (1971)
Month to date precipitation 1.71 1.08  
Year to date precipitation 2.96 3.78  
Snow  
Snow 0.10 in 0.30 in 6.70 in (2014)
Month to date snowfall 3.1 4.1  
Since 1 July snowfall 22.1 23.3  
Snow Depth 5.00 in    
Sea Level Pressure  
Sea Level Pressure 29.95 in    
Wind  
Wind Speed 2 mph (SE)    
Max Wind Speed 12 mph    
Max Gust Speed 16 mph    
Visibility 8 miles    
Events Snow    
T = Trace of Precipitation, MM = Missing Value Source: NWS Daily Summary

Daily Weather History Graph

Daily Weather History Graph

Search for Another Location

Airport or City:

Trip Planner

Search our weather history database for the weather conditions in past years. The results will help you decide how hot, cold, wet, or windy it might be!

Date:

Astronomy

Feb. 13, 2011 Rise Set
Actual Time 7:05 AM EST 5:38 PM EST
Civil Twilight 6:36 AM EST 6:07 PM EST
Nautical Twilight 6:04 AM EST 6:39 PM EST
Astronomical Twilight 5:32 AM EST 7:11 PM EST
Moon 12:33 PM EST (2/13) 3:15 AM EST (2/13)
Length of Visible Light 11h 30m
Length of Day
10h 33m
Waxing Gibbous, 74% of the Moon is Illuminated
Feb 13
Waxing Gibbous
Feb 18
Full
Feb 24
Last Quarter
Mar 4
New
Mar 12
First Quarter

Hourly Weather History & Observations

Time (EST) Temp. Windchill Dew Point Humidity Pressure Visibility Wind Dir Wind Speed Gust Speed Precip Events Conditions
12:54 AM 16.0 °F - 10.0 °F 77% 30.12 in 10.0 mi Calm Calm - N/A   Partly Cloudy
1:54 AM 16.0 °F - 10.0 °F 77% 30.12 in 10.0 mi Calm Calm - N/A   Clear
2:54 AM 14.0 °F - 9.0 °F 80% 30.11 in 10.0 mi Calm Calm - N/A   Clear
3:54 AM 14.0 °F - 9.0 °F 80% 30.11 in 10.0 mi Calm Calm - N/A   Mostly Cloudy
4:54 AM 15.1 °F - 10.0 °F 80% 30.09 in 10.0 mi Calm Calm - N/A   Overcast
5:54 AM 17.1 °F - 12.0 °F 81% 30.09 in 10.0 mi Calm Calm - N/A   Overcast
6:54 AM 18.0 °F 12.7 °F 12.0 °F 78% 30.06 in 10.0 mi East 3.5 mph - N/A   Overcast
7:29 AM 19.4 °F - 12.2 °F 74% 30.04 in 2.5 mi Calm Calm - 0.00 in Snow Light Snow
7:37 AM 19.4 °F - 12.2 °F 74% 30.04 in 1.8 mi Calm Calm - 0.00 in Snow Light Snow
7:40 AM 19.4 °F - 12.2 °F 74% 30.04 in 3.0 mi Calm Calm - 0.00 in Snow Light Snow
7:50 AM 19.4 °F - 14.0 °F 80% 30.04 in 2.5 mi Calm Calm - 0.00 in Snow Light Snow
7:54 AM 19.0 °F - 14.0 °F 81% 30.06 in 2.0 mi Calm Calm - 0.00 in Snow Light Snow
8:12 AM 19.4 °F - 15.8 °F 86% 30.02 in 6.0 mi Calm Calm - 0.00 in Snow Light Snow
8:51 AM 19.4 °F - 15.8 °F 86% 30.01 in 2.0 mi Calm Calm - 0.00 in Snow Light Snow
8:54 AM 21.0 °F - 16.0 °F 81% 30.04 in 3.0 mi Calm Calm - 0.00 in Snow Light Snow
9:54 AM 25.0 °F - 19.0 °F 78% 30.01 in 10.0 mi Calm Calm - 0.00 in   Overcast
10:54 AM 33.1 °F 27.7 °F 19.9 °F 59% 29.97 in 10.0 mi East 5.8 mph - N/A   Mostly Cloudy
11:54 AM 37.0 °F 34.5 °F 21.0 °F 52% 29.92 in 10.0 mi Variable 3.5 mph - N/A   Clear
12:54 PM 37.9 °F 35.5 °F 21.9 °F 53% 29.88 in 10.0 mi WNW 3.5 mph - N/A   Scattered Clouds
1:54 PM 37.9 °F - 24.1 °F 57% 29.84 in 10.0 mi Calm Calm - N/A   Clear
2:54 PM 45.0 °F 39.7 °F 23.0 °F 42% 29.81 in 10.0 mi South 10.4 mph - N/A   Clear
3:54 PM 45.0 °F 39.3 °F 23.0 °F 42% 29.79 in 10.0 mi South 11.5 mph - N/A   Clear
4:54 PM 45.0 °F 41.2 °F 24.1 °F 44% 29.80 in 10.0 mi SSE 6.9 mph - N/A   Clear
5:54 PM 46.0 °F 43.9 °F 25.0 °F 44% 29.81 in 10.0 mi Variable 4.6 mph - N/A   Overcast
6:54 PM 39.0 °F 35.7 °F 27.0 °F 62% 29.81 in 10.0 mi Variable 4.6 mph - N/A   Scattered Clouds
7:54 PM 36.0 °F 33.3 °F 27.0 °F 70% 29.80 in 10.0 mi NNE 3.5 mph - N/A   Clear
8:54 PM 35.1 °F - 27.0 °F 72% 29.80 in 10.0 mi Calm Calm - N/A   Clear
9:54 PM 35.1 °F - 27.0 °F 72% 29.77 in 10.0 mi Calm Calm - N/A   Clear
10:54 PM 32.0 °F - 26.1 °F 79% 29.75 in 10.0 mi Calm Calm - N/A   Clear
11:54 PM 30.9 °F - 26.1 °F 82% 29.73 in 10.0 mi Calm Calm - N/A   Clear